Weather History for KAQV - May, 2013

Change the Weather History Date:

Sunday, May 12, 2013

  Actual Average (KPOE) Record (KPOE)
Temperature  
Mean Temperature 65 °F -  
Max Temperature 75 °F 81 °F 91 °F (2002)
Min Temperature 53 °F 62 °F 51 °F (2008)
Growing Degree Days 15 (Base 50)    
Moisture  
Dew Point 52 °F    
Average Humidity 69    
Maximum Humidity 93    
Minimum Humidity 38    
Precipitation  
Precipitation 0.01 in - - ()
Sea Level Pressure  
Sea Level Pressure 30.15 in    
Wind  
Wind Speed 3 mph (NNE)    
Max Wind Speed 10 mph    
Max Gust Speed 17 mph    
Visibility 9 miles    
Events      
Averages and records for this station are not official NWS values.
T = Trace of Precipitation, MM = Missing Value Source: NWS Daily Summary

Daily Weather History Graph

Daily Weather History Graph

Search for Another Location

Airport or City:

Trip Planner

Search our weather history database for the weather conditions in past years. The results will help you decide how hot, cold, wet, or windy it might be!

Date:

Astronomy

May. 12, 2013 Rise Set
Actual Time 6:18 AM CDT 8:00 PM CDT
Civil Twilight 5:52 AM CDT 8:27 PM CDT
Nautical Twilight 5:20 AM CDT 8:58 PM CDT
Astronomical Twilight 4:47 AM CDT 9:32 PM CDT
Moon 8:16 AM CDT (5/12) 10:26 PM CDT (5/12)
Length of Visible Light 14h 34m
Length of Day
13h 41m
Waxing Crescent, 7% of the Moon is Illuminated
May 12
Waxing Crescent
May 17
First Quarter
May 24
Full
May 31
Last Quarter
Jun 8
New

Hourly Weather History & Observations

Time (CDT) Temp. Dew Point Humidity Pressure Visibility Wind Dir Wind Speed Gust Speed Precip Events Conditions
12:56 AM 61.0 °F 57.9 °F 90% 30.10 in 4.0 mi Calm Calm - N/A   Clear
1:56 AM 59.0 °F 57.0 °F 93% 30.09 in 5.0 mi Calm Calm - 0.01 in   Clear
2:56 AM 57.9 °F 55.9 °F 93% 30.08 in 4.0 mi Calm Calm - N/A   Clear
3:56 AM 57.0 °F 55.0 °F 93% 30.08 in 4.0 mi Calm Calm - N/A   Clear
4:56 AM 55.9 °F 54.0 °F 93% 30.09 in 5.0 mi Calm Calm - N/A   Clear
5:56 AM 55.9 °F 54.0 °F 93% 30.09 in 6.0 mi Calm Calm - N/A   Clear
6:56 AM 57.0 °F 55.0 °F 93% 30.13 in 8.0 mi Calm Calm - N/A   Clear
7:56 AM 61.0 °F 55.0 °F 81% 30.16 in 10.0 mi North 9.2 mph - N/A   Clear
8:56 AM 64.0 °F 51.1 °F 63% 30.17 in 10.0 mi NNE 8.1 mph 17.3 mph N/A   Clear
9:56 AM 64.9 °F 48.0 °F 54% 30.19 in 10.0 mi NNE 9.2 mph - N/A   Clear
10:56 AM 68.0 °F 50.0 °F 52% 30.18 in 10.0 mi Variable 3.5 mph - N/A   Clear
11:56 AM 71.1 °F 48.9 °F 45% 30.19 in 10.0 mi North 8.1 mph - N/A   Clear
12:56 PM 73.9 °F 50.0 °F 43% 30.19 in 10.0 mi North 6.9 mph - N/A   Clear
1:56 PM 73.0 °F 50.0 °F 44% 30.19 in 10.0 mi NNE 8.1 mph 16.1 mph N/A   Clear
2:56 PM 75.0 °F 51.1 °F 43% 30.17 in 10.0 mi North 10.4 mph - N/A   Clear
3:56 PM 73.9 °F 51.1 °F 45% 30.15 in 10.0 mi NNE 10.4 mph - N/A   Clear
4:56 PM 75.0 °F 48.0 °F 38% 30.15 in 10.0 mi NNE 8.1 mph - N/A   Clear
5:56 PM 75.0 °F 48.0 °F 38% 30.12 in 10.0 mi Variable 6.9 mph - N/A   Clear
6:56 PM 71.1 °F 44.1 °F 38% 30.12 in 10.0 mi North 4.6 mph - N/A   Clear
7:56 PM 64.0 °F 52.0 °F 65% 30.14 in 10.0 mi Calm Calm - N/A   Clear
8:56 PM 57.9 °F 52.0 °F 81% 30.16 in 10.0 mi Calm Calm - N/A   Clear
9:56 PM 55.9 °F 53.1 °F 90% 30.18 in 10.0 mi Calm Calm - N/A   Clear
10:56 PM 55.0 °F 52.0 °F 89% 30.19 in 10.0 mi Calm Calm - N/A   Clear
11:56 PM 53.1 °F 50.0 °F 89% 30.19 in 10.0 mi Calm Calm - N/A   Clear